DECAYED

STARLINK-1007, 44713 (Decayed)

Orbit data source: Space-Track

STARLINK-1007, 44713 was a payload satellite owned by SpaceX/Seattle (US) in LEO that was launched on Mon, 11 Nov 2019 UTC via an FALCON 9 launch vehicle from the Air Force Eastern Test Range (AFETR). Payload-class satellites include a variety of spacecraft equipped with specific instruments for various scientific and technological missions. These include communications satellites like Starlink; space stations such as the ISS; scientific satellites like the Hubble; Earth observation satellites from companies like Planet Labs, Umbra, and HawkEye 360; GPS; miniature CubeSats for education and research; and military/defense satellites.

Not visible in the next 10 days
Identifier
44713, 2019-074A
Orbit
Decayed
Country
Flag of USUS
Related business
Manufacturer
SpaceX/Seattle
Mission
Decayed Commercial Communications
Bus & Motor
STARLINK, Unknown motor
Mass
260 kg wet, ~248 kg dry
Launch date (UTC)
2019-11-11 (6 years ago)
Launch vehicle
FALCON 9
Launch site
Air Force Eastern Test Range (AFETR)
Object type
Payload
Rocket body
Debris
Shape & HBR
Box + 1 Pan, 4.4 m
Radar Cross Section
13.562 m², Large (>1 m²)

Expand to show TLE details & history
Last TLE update: 1 year ago

TLE from 1 year ago
0 STARLINK-1007
1 44713U 19074A   24276.62104521  .27315559  12225-4  58439-2 0  9996
2 44713  53.0382 329.7306 0008324   5.1336 119.9714 16.29877576270703
Epoch: 2024-10-02T14:54Z
TLE epoch observation values (Epoch: 2024-10-02T14:54:18.306Z)
Latitude
40.90739°
Longitude
-126.07527°
Altitude
199.353 km
Speed
7.791 km/s
True Right ascension
07h 17m 16s
True Declination
40° 43' 22"
Sunlit
Object was in daylight at epoch
Visualization orbit readout
Latitude
Unknown
Longitude
Unknown
Altitude
Unknown
Speed
Unknown
Apparent Right ascension
Unknown
Apparent Declination
Unknown
Sunlit
N/A
Visualization observer readout
Local Sidereal Time
15:29:39
Azimuth
Unknown
Elevation
Unknown
Doppler factor
Unknown
Orbital elements
Apogee altitude
198.626 km
Perigee altitude
187.686 km
Semi-major axis
6,571.293 km
Eccentricity
0.00083
Inclination
53.0382°
RAAN
329.7306°
Arg. of periapsis
5.1336°
True anomaly
120.05399°
Mean anomaly
119.9714°
Eccentric anomaly
120.0127°
Mean motion
4.07443 °/min
Orbital period
88.36 mins
BSTAR
0.0058439
Loading maneuver chart data...
Computing Atmospheric mass density...

Documentation

Showing up to 5 results
|